[[{"header":{"parameterUnit":"m.s-1","parameterCategory":1,"la1":30.2991,"la2":30.254,"lo1":-89.0895,"lo2":-89.0444,"dy":0.0017,"dx":0.0017,"nx":28,"ny":28,"refTime":"2023-09-22T03:00:00:Z","depth":0,"parameterNumber":2,"parameterNumberName":"U-component_of_WINDS"},"data":[0,0,0,0,0,0,0,0,0,0,0,0,0,0,0,0,0,0,0,0,0,0,0,0,0,0,0,0,0,0,0,0,0,0,0,0,0,0,0,0,0,0,0,0,0,0,0,0,0,0,0,0,0,0,0,0,0,0,-1.4255,-1.4256,0,-1.4409,-1.4411,-1.4413,-1.4385,-1.4382,-1.4379,-1.4377,-1.4537,-1.4543,-1.455,0,0,0,0,0,0,0,0,0,0,0,0,0,-1.3937,-1.3943,-1.4255,-1.4257,-1.4259,-1.4409,-1.4411,-1.4413,-1.4385,-1.4382,-1.4378,-1.4375,-1.4534,-1.4542,-1.4551,0,0,0,0,0,0,0,0,0,0,0,0,0,-1.4082,-1.3945,-1.4254,-1.4263,-1.4265,-1.4408,-1.4411,-1.4414,-1.4386,-1.4382,-1.4378,-1.4374,-1.4532,-1.4542,-1.4552,-1.4697,0,0,-1.4583,-1.4587,0,0,0,0,0,0,0,0,-1.4073,-1.4093,-1.426,-1.4262,-1.4265,-1.4373,-1.4358,-1.4509,-1.4387,-1.434,-1.4377,-1.4372,-1.4486,-1.45,-1.4538,-1.4705,-1.4712,-1.4584,-1.459,-1.4595,-1.4597,0,0,0,0,0,0,0,-1.4063,-1.4087,-1.4316,-1.4262,-1.4265,-1.4259,-1.4275,-1.4386,-1.4434,-1.4344,-1.4342,-1.4361,-1.4487,-1.4528,-1.4541,-1.4714,-1.4584,-1.4593,-1.4599,-1.4603,-1.5009,-1.5013,0,0,0,0,0,0,-1.4051,-1.4078,-1.4311,-1.432,-1.4157,-1.4268,-1.4286,-1.4343,-1.4433,-1.4443,-1.4364,-1.4359,-1.4512,-1.4529,-1.4547,-1.4723,-1.4594,-1.4604,-1.461,-1.5004,-1.501,-1.5015,0,0,0,0,0,0,-1.4044,-1.4072,-1.4305,-1.4199,-1.4228,-1.4278,-1.4342,-1.4348,-1.4389,-1.4448,-1.4457,-1.4397,-1.451,-1.4532,-1.466,-1.4729,-1.4609,-1.4618,-1.4999,-1.5006,-1.5012,-1.5078,0,0,0,0,0,0,-1.4035,-1.4069,-1.4125,-1.42,-1.4234,-1.4415,-1.4346,-1.4354,-1.4407,-1.4401,-1.4482,-1.4491,-1.4508,-1.4645,-1.467,-1.474,-1.4626,-1.4993,-1.5002,-1.501,-1.507,-1.5086,-1.51,0,0,0,0,0,-1.4024,-1.4138,-1.4128,-1.4156,-1.4304,-1.4419,-1.4438,-1.4455,-1.4412,-1.4469,-1.4507,-1.4488,-1.4717,-1.4658,-1.4686,-1.4761,-1.4988,-1.4999,-1.5009,-1.5063,-1.5083,-1.51,0,0,0,0,0,0,-1.4069,-1.4148,-1.4138,-1.4279,-1.4343,-1.4414,-1.4486,-1.4476,-1.4553,-1.4545,-1.4563,-1.4582,-1.4712,-1.4749,-1.4682,-1.4906,-1.4847,-1.4863,-1.4878,-1.4897,-1.4912,-1.4901,-1.4634,0,0,0,0,0,-1.4096,-1.4182,-1.4246,-1.4365,-1.4397,-1.4436,-1.4487,-1.4494,-1.4561,-1.4588,-1.4635,-1.4701,-1.4787,-1.4844,-1.4927,-1.5074,-1.5092,-1.514,-1.5155,-1.5167,-1.5181,-1.5263,-1.5285,-1.5049,-1.5049,-1.5049,0,0,-1.4152,-1.4205,-1.4259,-1.4375,-1.4425,-1.4515,-1.4459,-1.4556,-1.4623,-1.4603,-1.4726,-1.4763,-1.4838,-1.4976,-1.5039,-1.5011,-1.525,-1.518,-1.5189,-1.5198,-1.5276,-1.5298,-1.5318,-1.5056,-1.5055,-1.5054,0,0,-1.4299,-1.4348,-1.4453,-1.4504,-1.458,-1.4605,-1.463,-1.4703,-1.4727,-1.4851,-1.4838,-1.4917,-1.5066,-1.512,-1.5167,-1.5334,-1.5321,-1.5361,-1.5441,-1.5519,-1.5538,-1.5555,-1.5615,-1.5636,-1.5375,-1.5375,-1.5375,0,-1.4359,-1.4493,-1.4508,-1.4606,-1.4658,-1.4643,-1.475,-1.4799,-1.4898,-1.4935,-1.4901,-1.5087,-1.5137,-1.5288,-1.5328,-1.5367,-1.5396,-1.5352,-1.5534,-1.5551,-1.5567,-1.5624,-1.5647,-1.5379,-1.5379,-1.5378,-1.5378,0,-1.4564,-1.4657,-1.4732,-1.4828,-1.4888,-1.499,-1.5021,-1.508,-1.5082,-1.5111,-1.5237,-1.5296,-1.539,-1.5426,-1.543,-1.5578,-1.5558,-1.5529,-1.547,-1.5593,-1.5648,-1.567,-1.5386,-1.5384,-1.5383,-1.5382,0,0,-1.4745,-1.4848,-1.4875,-1.4919,-1.5001,-1.5074,-1.5175,-1.5267,-1.5318,-1.5387,-1.5473,-1.5598,-1.5572,-1.5625,-1.5634,-1.5703,-1.5833,-1.5666,-1.5668,-1.5696,-1.6001,-1.6023,-1.6048,-1.5824,-1.5828,-1.5832,-1.5995,0,-1.4901,-1.508,-1.5096,-1.5256,-1.5342,-1.5329,-1.5418,-1.5478,-1.5508,-1.5586,-1.5618,-1.5707,-1.5665,-1.5697,-1.5765,-1.5803,-1.5895,-1.5791,-1.5905,-1.5909,-1.5887,-1.6077,-1.61,-1.6252,-1.6016,-1.602,-1.6022,0,-1.5107,-1.5182,-1.5351,-1.5421,-1.5458,-1.5537,-1.5623,-1.5697,-1.5766,-1.5782,-1.5841,-1.5841,-1.5946,-1.5881,-1.6026,-1.5955,-1.6003,-1.6028,-1.6034,-1.6047,-1.5974,-1.6095,-1.63,-1.6323,-1.6056,-1.6053,-1.6051,0,-1.5224,-1.5366,-1.5486,-1.5524,-1.5609,-1.5665,-1.5703,-1.5767,-1.5821,-1.5896,-1.5931,-1.6018,-1.6065,-1.6132,-1.6155,-1.6106,-1.6299,-1.6236,-1.6317,-1.6316,-1.6359,-1.6356,-1.6576,-1.6388,-1.6388,-1.6387,-1.6387,0,-1.5397,-1.5501,-1.554,-1.5613,-1.573,-1.5747,-1.5862,-1.5897,-1.5954,-1.6035,-1.6028,-1.6104,-1.613,-1.621,-1.6229,-1.6346,-1.6368,-1.6384,-1.6388,-1.6386,-1.6384,-1.6418,-1.6408,-1.6393,-1.6392,-1.6391,-1.639,0,-1.5547,-1.5577,-1.5707,-1.5777,-1.5796,-1.5879,-1.5939,-1.601,-1.6038,-1.614,-1.6165,-1.6209,-1.6304,-1.6333,-1.6447,-1.6459,-1.6597,-1.6591,-1.6574,-1.6574,-1.6653,-1.6646,-1.6903,-1.6938,-1.6726,-1.6728,-1.673,0,-1.5656,-1.5736,-1.5814,-1.5867,-1.5908,-1.5994,-1.6049,-1.6069,-1.6126,-1.621,-1.6271,-1.6364,-1.644,-1.6591,-1.6634,-1.6721,-1.6718,-1.6802,-1.6731,-1.6725,-1.672,-1.6715,-1.6723,-1.6815,-1.6818,-1.6819,-1.6821,0,-1.5846,-1.5857,-1.5936,-1.6022,-1.6087,-1.6155,-1.6221,-1.6265,-1.6294,-1.6359,-1.6455,-1.6514,-1.663,-1.6723,-1.6811,-1.6851,-1.6842,-1.6843,-1.6866,-1.6865,-1.6851,-1.686,-1.6611,-1.6837,-1.6835,-1.6834,-1.6833,-1.6833,-1.598,-1.605,-1.6116,-1.6205,-1.6256,-1.6317,-1.6388,-1.6424,-1.6504,-1.66,-1.6607,-1.6711,-1.6777,-1.6895,-1.6939,-1.7021,-1.6997,-1.703,-1.7039,-1.7047,-1.7054,-1.6838,-1.7037,-1.7037,-1.7036,-1.7036,-1.7036,0,-1.617,-1.6212,-1.6293,-1.6385,-1.6455,-1.6439,-1.651,-1.657,-1.6662,-1.6724,-1.6798,-1.6909,-1.6998,-1.7048,-1.7137,-1.7194,-1.7192,-1.7217,-1.7213,-1.7222,-1.707,-1.7041,-1.7217,-1.7217,-1.7217,-1.7217,-1.7217,-1.7216,-1.6278,-1.6396,-1.6415,-1.6558,-1.6599,-1.6701,-1.6743,-1.68,-1.6849,-1.6973,-1.7047,-1.7078,-1.7136,-1.723,-1.7311,-1.7324,-1.7357,-1.7385,-1.7395,-1.7252,-1.7233,-1.7216,-1.7189,-1.7392,-1.7392,-1.7541,-1.7542,-1.7543]},{"header":{"parameterUnit":"m.s-1","parameterCategory":1,"la1":30.2991,"la2":30.254,"lo1":-89.0895,"lo2":-89.0444,"dy":0.0017,"dx":0.0017,"nx":28,"ny":28,"refTime":"2023-09-22T03:00:00:Z","depth":0,"parameterNumber":3,"parameterNumberName":"V-component_of_WINDS"},"data":[0,0,0,0,0,0,0,0,0,0,0,0,0,0,0,0,0,0,0,0,0,0,0,0,0,0,0,0,0,0,0,0,0,0,0,0,0,0,0,0,0,0,0,0,0,0,0,0,0,0,0,0,0,0,0,0,0,0,-2.3365,-2.3365,0,-2.3416,-2.3417,-2.3417,-2.3411,-2.341,-2.3409,-2.3408,-2.3457,-2.3459,-2.3461,0,0,0,0,0,0,0,0,0,0,0,0,0,-2.3258,-2.326,-2.3365,-2.3365,-2.3366,-2.3416,-2.3417,-2.3417,-2.3411,-2.341,-2.3409,-2.3408,-2.3456,-2.3459,-2.3461,0,0,0,0,0,0,0,0,0,0,0,0,0,-2.3306,-2.326,-2.3365,-2.3369,-2.337,-2.3416,-2.3417,-2.3417,-2.3411,-2.341,-2.3409,-2.3407,-2.3455,-2.3458,-2.3462,-2.3505,0,0,-2.3471,-2.3472,0,0,0,0,0,0,0,0,-2.3303,-2.331,-2.3368,-2.3369,-2.337,-2.3406,-2.3397,-2.3447,-2.3411,-2.3395,-2.3408,-2.3407,-2.3441,-2.3445,-2.3457,-2.3508,-2.351,-2.3471,-2.3473,-2.3474,-2.3475,0,0,0,0,0,0,0,-2.33,-2.3308,-2.3385,-2.3369,-2.337,-2.3367,-2.3373,-2.3406,-2.3424,-2.3397,-2.3396,-2.3403,-2.3441,-2.3454,-2.3458,-2.351,-2.3471,-2.3474,-2.3476,-2.3477,-2.3598,-2.3599,0,0,0,0,0,0,-2.3296,-2.3305,-2.3383,-2.3386,-2.3333,-2.337,-2.3376,-2.3395,-2.3424,-2.3427,-2.3404,-2.3402,-2.3449,-2.3455,-2.346,-2.3512,-2.3474,-2.3477,-2.3479,-2.3597,-2.3598,-2.36,0,0,0,0,0,0,-2.3294,-2.3303,-2.3381,-2.3346,-2.3355,-2.3373,-2.3395,-2.3397,-2.341,-2.3429,-2.3432,-2.3414,-2.3449,-2.3455,-2.3494,-2.3514,-2.3479,-2.3481,-2.3595,-2.3597,-2.3599,-2.3617,0,0,0,0,0,0,-2.3291,-2.3302,-2.332,-2.3346,-2.3357,-2.3416,-2.3396,-2.3399,-2.3416,-2.3415,-2.344,-2.3442,-2.3448,-2.3489,-2.3497,-2.3517,-2.3484,-2.3593,-2.3596,-2.3598,-2.3615,-2.362,-2.3624,0,0,0,0,0,-2.3287,-2.3323,-2.3321,-2.333,-2.338,-2.3417,-2.3423,-2.343,-2.3418,-2.3435,-2.3447,-2.3442,-2.3511,-2.3493,-2.3502,-2.3523,-2.3592,-2.3595,-2.3598,-2.3613,-2.3619,-2.3624,0,0,0,0,0,0,-2.3297,-2.3326,-2.3325,-2.337,-2.3391,-2.3416,-2.3438,-2.3436,-2.346,-2.3458,-2.3464,-2.347,-2.3509,-2.352,-2.35,-2.3567,-2.3549,-2.3554,-2.3558,-2.3563,-2.3568,-2.3564,-2.3486,0,0,0,0,0,-2.3305,-2.3334,-2.3357,-2.3395,-2.3406,-2.342,-2.3436,-2.344,-2.3461,-2.347,-2.3485,-2.3505,-2.3531,-2.3548,-2.3573,-2.3617,-2.3621,-2.3636,-2.364,-2.3644,-2.3647,-2.367,-2.3676,-2.361,-2.361,-2.361,0,0,-2.3321,-2.334,-2.3358,-2.3397,-2.3414,-2.3442,-2.3427,-2.3458,-2.3479,-2.3474,-2.3512,-2.3523,-2.3546,-2.3587,-2.3606,-2.3598,-2.3667,-2.3647,-2.365,-2.3652,-2.3674,-2.368,-2.3686,-2.3612,-2.3611,-2.3611,0,0,-2.3364,-2.3382,-2.3415,-2.3433,-2.3459,-2.3468,-2.3476,-2.3501,-2.3509,-2.3547,-2.3544,-2.3568,-2.3613,-2.3629,-2.3643,-2.3692,-2.3687,-2.37,-2.3722,-2.3744,-2.375,-2.3754,-2.3771,-2.3777,-2.3704,-2.3704,-2.3704,0,-2.338,-2.3424,-2.3432,-2.3463,-2.348,-2.3479,-2.3511,-2.3527,-2.356,-2.3571,-2.3562,-2.3618,-2.3633,-2.3677,-2.3689,-2.3701,-2.3709,-2.3697,-2.3749,-2.3753,-2.3758,-2.3773,-2.378,-2.3705,-2.3705,-2.3705,-2.3705,0,-2.3441,-2.3472,-2.3495,-2.3528,-2.3547,-2.3579,-2.3591,-2.3609,-2.3611,-2.3621,-2.3659,-2.3677,-2.3706,-2.3717,-2.3719,-2.3761,-2.3755,-2.3747,-2.373,-2.3765,-2.378,-2.3786,-2.3707,-2.3707,-2.3706,-2.3706,0,0,-2.3492,-2.3529,-2.3537,-2.3551,-2.358,-2.3603,-2.3634,-2.3663,-2.3678,-2.3701,-2.3726,-2.3764,-2.3757,-2.3773,-2.3776,-2.3796,-2.3832,-2.3786,-2.3786,-2.3793,-2.3879,-2.3884,-2.3891,-2.383,-2.3831,-2.3832,-2.3877,0,-2.3537,-2.3593,-2.3602,-2.3651,-2.3678,-2.3677,-2.3704,-2.3723,-2.3734,-2.3757,-2.3768,-2.3794,-2.3783,-2.3793,-2.3813,-2.3824,-2.3849,-2.3821,-2.3852,-2.3853,-2.3845,-2.3899,-2.3904,-2.3945,-2.3882,-2.3883,-2.3884,0,-2.3597,-2.3622,-2.3674,-2.3698,-2.371,-2.3734,-2.3761,-2.3784,-2.3806,-2.3812,-2.383,-2.3831,-2.3862,-2.3844,-2.3885,-2.3866,-2.3879,-2.3886,-2.3888,-2.389,-2.387,-2.3901,-2.3958,-2.3964,-2.3894,-2.3893,-2.3892,0,-2.3627,-2.3673,-2.3711,-2.3723,-2.3753,-2.377,-2.3782,-2.3803,-2.382,-2.3843,-2.3853,-2.388,-2.3893,-2.3913,-2.392,-2.3907,-2.3961,-2.3944,-2.3965,-2.3965,-2.3976,-2.3975,-2.4035,-2.3986,-2.3986,-2.3986,-2.3986,0,-2.3676,-2.3707,-2.3724,-2.3747,-2.3782,-2.3791,-2.3825,-2.3837,-2.3855,-2.3879,-2.388,-2.3902,-2.3911,-2.3934,-2.394,-2.3973,-2.398,-2.3984,-2.3985,-2.3983,-2.3983,-2.3991,-2.3988,-2.3988,-2.3988,-2.3987,-2.3987,0,-2.3714,-2.3728,-2.3768,-2.3793,-2.38,-2.3824,-2.3845,-2.3866,-2.3876,-2.3907,-2.3914,-2.3929,-2.3957,-2.3966,-2.3999,-2.4003,-2.4041,-2.404,-2.4034,-2.4034,-2.4054,-2.4052,-2.4121,-2.413,-2.4076,-2.4077,-2.4077,0,-2.3744,-2.3769,-2.3797,-2.3813,-2.3827,-2.3854,-2.3871,-2.3881,-2.3898,-2.3925,-2.3942,-2.397,-2.3992,-2.4036,-2.4049,-2.4074,-2.4073,-2.4095,-2.4076,-2.4074,-2.4071,-2.4069,-2.4071,-2.4098,-2.4099,-2.4099,-2.41,0,-2.3795,-2.38,-2.3826,-2.3854,-2.3875,-2.3896,-2.3918,-2.3931,-2.3943,-2.3963,-2.3991,-2.4009,-2.4043,-2.4069,-2.4095,-2.4107,-2.4105,-2.4106,-2.4112,-2.411,-2.4105,-2.4106,-2.4042,-2.4104,-2.4103,-2.4103,-2.4103,-2.4103,-2.383,-2.3851,-2.3874,-2.3902,-2.3919,-2.3939,-2.396,-2.3973,-2.3998,-2.4027,-2.4031,-2.4061,-2.4081,-2.4115,-2.4128,-2.4151,-2.4145,-2.4154,-2.4156,-2.4158,-2.4158,-2.4102,-2.4156,-2.4156,-2.4156,-2.4156,-2.4156,0,-2.3879,-2.3894,-2.392,-2.395,-2.3972,-2.397,-2.3993,-2.4011,-2.4038,-2.4058,-2.408,-2.4113,-2.4139,-2.4154,-2.418,-2.4195,-2.4194,-2.4201,-2.4199,-2.4202,-2.4163,-2.4155,-2.4201,-2.4201,-2.4201,-2.4201,-2.4201,-2.4201,-2.3908,-2.3944,-2.3952,-2.3995,-2.401,-2.404,-2.4054,-2.4071,-2.4087,-2.4123,-2.4145,-2.4156,-2.4173,-2.42,-2.4223,-2.4227,-2.4236,-2.4243,-2.4246,-2.4209,-2.4205,-2.42,-2.4192,-2.4245,-2.4245,-2.4282,-2.4283,-2.4283]}]]